Chicopee, MA

5:06 PM EDT on July 27, 2017 (GMT -0400)
Westover Air Reserve Base / Metropolitan Airport

Weather History for KCEF - December, 2013

Change the Weather History Date:

Wednesday, December 11, 2013

  Actual Average Record
Temperature  
Mean Temperature 23 °F -  
Max Temperature 27 °F 38 °F 55 °F (2015)
Min Temperature 19 °F 22 °F 7 °F (2016)
Degree Days  
Heating Degree Days 42    
Moisture  
Dew Point 18 °F    
Average Humidity 81    
Maximum Humidity 93    
Minimum Humidity 73    
Precipitation  
Precipitation 0.00 in - - ()
Sea Level Pressure  
Sea Level Pressure 30.18 in    
Wind  
Wind Speed 9 mph (SW)    
Max Wind Speed 14 mph    
Max Gust Speed 18 mph    
Visibility 10 miles    
Events Snow    
Averages and records for this station are not official NWS values.
T = Trace of Precipitation, MM = Missing Value Source: NWS Daily Summary

Daily Weather History Graph

Daily Weather History Graph

Search for Another Location

Airport or City:

Trip Planner

Search our weather history database for the weather conditions in past years. The results will help you decide how hot, cold, wet, or windy it might be!

Date:

Astronomy

Dec. 11, 2013 Rise Set
Actual Time 7:08 AM EST 4:18 PM EST
Civil Twilight 6:37 AM EST 4:49 PM EST
Nautical Twilight 6:01 AM EST 5:25 PM EST
Astronomical Twilight 5:27 AM EST 5:59 PM EST
Moon 12:54 PM EST (12/11) 1:22 AM EST (12/11)
Length of Visible Light 10h 12m
Length of Day
9h 09m
Waxing Gibbous, 71% of the Moon is Illuminated
Dec 11
Waxing Gibbous
Dec 17
Full
Dec 25
Last Quarter
Jan 1
New
Jan 7
First Quarter

Hourly Weather History & Observations

Time (EST) Temp. Windchill Dew Point Humidity Pressure Visibility Wind Dir Wind Speed Gust Speed Precip Events Conditions
12:58 AM 19.9 °F 13.4 °F 16.5 °F 87% 30.06 in 10.0 mi SW 4.6 mph - N/A   Clear
2:58 AM 20.1 °F 9.5 °F 16.5 °F 86% 30.12 in 10.0 mi SSW 9.2 mph - N/A   Clear
3:58 AM 19.6 °F 9.7 °F 16.2 °F 87% 30.14 in 10.0 mi SSW 8.1 mph - N/A   Clear
4:58 AM 21.9 °F 9.8 °F 16.9 °F 81% 30.15 in 10.0 mi SW 12.7 mph 18.4 mph N/A   Clear
5:58 AM 19.8 °F 8.3 °F 15.6 °F 84% 30.18 in 10.0 mi SW 10.4 mph - N/A   Clear
6:58 AM 19.6 °F 10.6 °F 15.1 °F 83% 30.23 in 10.0 mi SSW 6.9 mph - N/A   Clear
7:58 AM 19.9 °F 12.1 °F 15.6 °F 83% 30.24 in 10.0 mi SSW 5.8 mph - N/A   Clear
9:58 AM 25.5 °F 16.2 °F 18.0 °F 73% 30.25 in 10.0 mi SSW 9.2 mph - N/A   Clear
10:58 AM 27.1 °F 17.5 °F 19.8 °F 74% 30.22 in 10.0 mi SW 10.4 mph - N/A   Partly Cloudy
11:58 AM 27.9 °F 17.3 °F 20.7 °F 74% 30.20 in 10.0 mi SSW 12.7 mph - N/A   Clear
12:58 PM 27.5 °F 16.8 °F 20.1 °F 74% 30.19 in 10.0 mi SW 12.7 mph - N/A   Overcast
1:58 PM 27.3 °F 17.1 °F 20.1 °F 74% 30.18 in 10.0 mi SW 11.5 mph - N/A   Partly Cloudy
2:58 PM 27.3 °F 16.1 °F 19.9 °F 74% 30.18 in 10.0 mi SW 13.8 mph - N/A   Partly Cloudy
3:58 PM 25.9 °F 16.0 °F 19.2 °F 76% 30.18 in 10.0 mi SSW 10.4 mph - N/A   Partly Cloudy
4:58 PM 26.1 °F 17.6 °F 19.9 °F 78% 30.18 in 10.0 mi SSW 8.1 mph - N/A   Partly Cloudy
5:58 PM 26.1 °F 16.8 °F 20.3 °F 79% 30.18 in 10.0 mi SSW 9.2 mph - N/A   Clear
6:58 PM 24.8 °F 16.1 °F 18.9 °F 78% 30.17 in 10.0 mi SSW 8.1 mph - N/A   Scattered Clouds
7:58 PM 24.8 °F 16.1 °F 18.5 °F 77% 30.17 in 10.0 mi SSW 8.1 mph - N/A   Partly Cloudy
8:58 PM 21.7 °F 14.3 °F 17.1 °F 82% 30.17 in 10.0 mi South 5.8 mph - N/A   Clear
9:58 PM 19.8 °F 10.8 °F 16.5 °F 87% 30.18 in 10.0 mi South 6.9 mph - N/A   Clear
10:45 PM 19.4 °F 11.5 °F 17.6 °F 93% 30.17 in 10.0 mi NNW 5.8 mph - N/A Snow Light Snow
10:50 PM 21.2 °F 10.1 °F 19.4 °F 93% 30.16 in 7.0 mi WNW 10.4 mph - N/A Snow Light Snow
10:58 PM 23.4 °F 12.8 °F 19.9 °F 87% 30.19 in 6.0 mi West 10.4 mph - 0.00 in Snow Light Snow
11:04 PM 24.8 °F 14.6 °F 21.2 °F 86% 30.16 in 10.0 mi West 10.4 mph - N/A Snow Light Snow
11:20 PM 24.8 °F 16.1 °F 19.4 °F 80% 30.16 in 10.0 mi West 8.1 mph - N/A   Mostly Cloudy
11:58 PM 23.9 °F 15.8 °F 19.4 °F 83% 30.19 in 10.0 mi WSW 6.9 mph - 0.00 in   Overcast